Location: Del Oro Observatory
(38.3044°N, 104.8119°W)
Time: 16:40:45
(UTC-06:00)

Cosmos 1602 Rocket - Visible Passes

Search period start: 30 July 2016 00:00
Search period end: 09 August 2016 00:00
Orbit: 604 x 634 km, 82.5° (Epoch: 30 July)

Date Brightness Start Highest point End Pass type
(mag) Time Alt. Az. Time Alt. Az. Time Alt. Az.
30 Jul 6.2 01:31:52 10° NW 01:32:41 13° NW 01:32:41 13° NW visible
31 Jul 5.5 00:10:31 10° N 00:12:42 28° N 00:12:42 28° N visible
01 Aug 5.6 00:27:49 10° NNW 00:29:52 27° NNW 00:29:52 27° NNW visible
01 Aug 5.9 23:08:28 10° NNE 23:09:55 15° NE 23:09:55 15° NE visible
02 Aug 5.9 00:45:25 10° NNW 00:47:04 20° NW 00:47:04 20° NW visible
02 Aug 5.5 23:25:01 10° NNE 23:27:07 23° NNE 23:27:07 23° NNE visible
03 Aug 6.3 01:03:28 10° NW 01:04:15 13° NW 01:04:15 13° NW visible
03 Aug 5.3 23:42:00 10° N 23:44:19 29° N 23:44:19 29° N visible
04 Aug 5.5 23:59:20 10° NNW 00:01:32 28° NNW 00:01:32 28° NNW visible
05 Aug 5.7 22:39:53 10° NNE 22:41:37 16° NE 22:41:37 16° NE visible
06 Aug 5.9 00:16:58 10° NNW 00:18:46 21° NW 00:18:46 21° NW visible
06 Aug 5.3 22:56:29 10° NNE 22:58:52 25° NE 22:58:52 25° NE visible
07 Aug 6.3 00:35:04 10° NW 00:36:01 14° NW 00:36:01 14° NW visible
07 Aug 5.0 23:13:31 10° N 23:16:07 33° N 23:16:07 33° N visible
08 Aug 6.0 21:55:55 10° NE 21:56:14 10° ENE 21:56:14 10° ENE visible
08 Aug 5.3 23:30:52 10° NNW 23:33:23 32° NNW 23:33:23 32° NNW visible
